Regional Weather Roundup
Issued by NWS Grand Forks, ND

Home | Current Version | Previous Version | Graphics & Text | Print | Product List | Glossary On
Versions: 1 2 3 4 5 6 7 8 9 10 11 12 13 14 15 16 17 18 19 20 21 22 23 24 25 26 27 28 29 30 31 32 33 34 35 36 37 38 39 40 41 42 43 44 45 46 47 48 49 50
000
ASUS43 KFGF 290531
RWRFGF
PRAIRIE TO PINES  WEATHER ROUNDUP
NATIONAL WEATHER SERVICE EASTERN NORTH DAKOTA/GRAND FORKS ND
1200 AM CDT FRI APR 29 2016

 **SATELLITE DATA USED TO AUGMENT SKY COVER AT AUTOMATED STATIONS**
 *****  WEATHER ACROSS EASTERN NORTH DAKOTA  *****

CITY           SKY/WX    TMP DP  RH WIND       PRES   REMARKS
GRAND FORKS    PTCLDY    35  28  75 N6        30.16S
GRAND FRKS AFB CLOUDY    37  27  67 N5        30.17R
DEVILS LAKE    CLOUDY    42  25  50 NE8       30.19S
FARGO          CLOUDY    46  28  49 NE7       30.13R
WAHPETON ARPT  CLOUDY    43  36  75 SW3       30.15S
$$

 ***** WEATHER ACROSS CENTRAL AND WESTERN NORTH DAKOTA  *****

CITY           SKY/WX    TMP DP  RH WIND       PRES   REMARKS
BISMARCK       CLOUDY    46  32  58 NE8       30.16S
MINOT          MOCLDY    46  21  37 NE6       30.18S
JAMESTOWN      CLOUDY    41  28  60 NE9       30.14S
MINOT AFB      CLOUDY    44  21  39 E9        30.18S
GARRISON         N/A     40  23  50 NE6       30.17S
WILLISTON      CLOUDY    43  27  53 N3        30.16F
DICKINSON      MOCLDY    40  28  62 E5        30.12S
HETTINGER      CLOUDY    39  36  89 NW5       30.14F
$$

 *****  OTHER AIRPORT OBSERVATIONS IN OUR AREA  *****

CITY           SKY/WX    TMP DP  RH WIND       PRES   REMARKS
WALHALLA       FAIR      39  23  52 NW6       30.21S
GRAFTON AIRPOR FAIR      41  28  60 N6        30.20S
VALLEY CITY AR FAIR      41  27  56 CALM      30.16F
CANDO          FAIR      39  18  41 NE8       30.22R
CAVALIER APRT  FAIR      41  25  52 N3        30.20R
GWINNER        FAIR      45  39  81 SW9       30.14S
SHEYENNE NWR     N/A     42  36  78 W2        29.95S
ROLLA          FAIR      36  19  51 N8        30.22S
 ***** THE ABOVE OBSERVATIONS ARE NON NWS ARE NOT QUALITY
       CONTROLLED AND MAY MIS-REPORT RAIN FOR SNOW...
$$

  *****  WEATHER ACROSS NORTHERN MINNESOTA  *****

CITY           SKY/WX    TMP DP  RH WIND       PRES   REMARKS
FLAG ISLAND    CLOUDY    43  30  61 NE3       30.18S
WARROAD        CLOUDY    43  32  65 NE6       30.19S
ROSEAU         CLOUDY    39  32  75 NE3       30.18S
HALLOCK        CLOUDY    41  25  52 N5        30.19R
THF RVR FALLS  PTCLDY    43  21  42 NE6       30.17S
BAUDETTE       MOCLDY    42  28  57 NE7       30.17S
WASKISH        PTCLDY    43  28  56 NE6       30.16R
CROOKSTON      CLOUDY    43  25  49 E8        30.17S
STEPHEN NDAWN    N/A     36  27  69 N3          N/A
GREENBUSH NDAW   N/A     37  30  75 N1          N/A
$$
  *****  WEATHER ACROSS CENTRAL AND WEST MINNESOTA  *****

CITY           SKY/WX    TMP DP  RH WIND       PRES   REMARKS
FOSSTON        PTCLDY    43  28  56 NE6       30.15S
BEMIDJI        CLOUDY    37  29  73 CALM      30.13S
PARK RAPIDS    CLEAR     38  26  62 S5        30.12S
ELBOW LAKE     MOCLDY    39  38  95 SW5       30.15S
WADENA         PTCLDY    39  36  87 CALM      30.14R
DETROIT LAKES  CLOUDY    43  32  65 SW5       30.14S
MOORHEAD       CLOUDY    46  34  61 SE3       30.14S
FERGUS FALLS   CLOUDY    43  37  81 SW5       30.14S
MORRIS MN      CLOUDY    39  37  93 S3        30.14S
STAPLES        PTCLDY    41  30  65 CALM      30.14S
$$
  *****  WEATHER ELSEWHERE ACROSS MINNESOTA  *****

CITY           SKY/WX    TMP DP  RH WIND       PRES   REMARKS
DULUTH         CLOUDY    35  25  66 CALM      30.13R
INTRNTL FALLS  MOCLDY    41  30  65 N5        30.15S
ELY            CLEAR     30  28  93 CALM      30.14R
CLOQUET        CLOUDY    30  25  80 CALM      30.13F
WHEATON        CLOUDY    43  41  93 CALM      30.17S
BRAINERD       CLOUDY    44  20  38 CALM      30.14S
HIBBING        CLOUDY    29  25  85 CALM      30.14S
ALEXANDRIA     CLOUDY    40  36  86 S5        30.15S
SAINT CLOUD    CLOUDY    40  39  97 NW3       30.14R
MINNEAPOLIS    LGT RAIN  40  36  86 SE7       30.14S
$$

  *****  WEATHER ACROSS SOUTH DAKOTA  *****

CITY           SKY/WX    TMP DP  RH WIND       PRES   REMARKS
SIOUX FALLS    DRIZZLE   38  36  92 N6        30.12R
BROOKINGS      CLOUDY    38  36  92 E5        30.11F
WATERTOWN      CLOUDY    39  36  89 NE5       30.11F
HURON          CLOUDY    39  36  89 NE3       30.13F
SISSETON         N/A     42  37  82 SW5       30.14S
ABERDEEN       MOCLDY    42  36  79 S5        30.15S
MITCHELL       CLOUDY    40  36  86 NE5       30.14R
PIERRE         CLOUDY    43  37  79 N5        30.12F
MOBRIDGE       CLOUDY    47  40  76 CALM      30.11S
RAPID CITY     CLOUDY    37  34  89 N3        30.13F
$$

  *****  SOME WEATHER IN NEARBY STATES *****

CITY           SKY/WX    TMP DP  RH WIND       PRES   REMARKS
GLASGOW MT     MOCLDY    42  32  67 S7        30.14R
GREAT FALLS MT CLOUDY    38  33  82 E9        30.06S
CHEYENNE WY    CLOUDY    33  31  92 SE8       30.02F
SCOTTSBLUFF NE MOCLDY    35  33  92 CALM      30.09R
OMAHA NE       CLOUDY    46  41  82 N5        30.11S
DES MOINES IA  DRIZZLE   49  45  86 NW10      30.07S
DAVENPORT IA   CLOUDY    47  45  93 N9        30.03R FOG
CHICAGO IL     CLOUDY    42  41  96 N8        30.00S FOG
EAU CLAIRE WI  LGT RAIN  39  38  96 CALM      30.11S
LA CROSSE WI   CLOUDY    41  36  82 N5        30.09F
$$

  *****  SOME NATIONAL WEATHER *****

CITY           SKY/WX    TMP DP  RH WIND       PRES   REMARKS
LA GUARDIA NY  CLOUDY    49  38  65 CALM      30.06R
RALEIGH NC     FOG       66  65  96 NE8       29.91F VSB 1/2
ATLANTA GA     CLEAR     69  57  65 W6        29.97F
NEW ORLEANS LA PTCLDY    74  69  85 S8        29.93F
OKLAHOMA CITY  MOCLDY    63  51  65 E14       29.88S
ALBUQUERQUE NM CLOUDY    60  19  20 NW12      29.78R
SALT LAKE CITY MOCLDY    50  31  48 E9        29.83S
LOS ANGELES CA MOCLDY    57  52  82 CALM      29.95R
BOISE ID       CLOUDY    56  33  42 N10       29.86R
SEATTLE WA     CLOUDY    54  48  80 W6        30.10R
$$

*** WEATHER ACROSS MANITOBA...SASKATCHEWAN AND ONTARIO ***
                ***ONTARIO***

CITY           SKY/WX    TMP DP  RH WIND       PRES   REMARKS
GERALDTON      CLEAR     28  25  86 CALM      30.19S
THUNDER BAY    PTCLDY    28  25  86 W3        30.16S
SIOUX LOOKOUT  CLOUDY    43  28  56 CALM      30.19F
TORONTO        CLOUDY    43  23  45 E8        30.07S
BIG TROUT LK   CLOUDY    30  27  86 VRB2      30.30S
PICKLE LAKE    NOT AVBL
DRYDEN         CLOUDY    43  30  61 NE8       30.18S
KENORA         PTCLDY    41  28  60 NE6       30.19S
$$
                *** MANITOBA***

CITY           SKY/WX    TMP DP  RH WIND       PRES   REMARKS
BRANDON        PTCLDY    34  18  51 NE9       30.24S
DAUPHIN        CLEAR     32  16  51 S3        30.27R
ISLAND LAKE    CLEAR     36  10  35 NE3       30.32S
PILOT MOUND      N/A     39  12  33 N6          N/A
THE PAS        CLEAR     39  21  48 SE6       30.29S
THOMPSON       MOCLDY    43  18  36 VRB2      30.31S
WINNIPEG       CLEAR     37  21  52 NE10      30.23R
LYNN LAKE      MOCLDY    43  25  49 S3        30.19F
CHURCHILL      CLEAR     23  23 100 E6        30.45F WCI  16
GILLAM         MOCLDY    30  18  59 E5        30.39S
$$
                ***SASKATCHEWAN***

CITY           SKY/WX    TMP DP  RH WIND       PRES   REMARKS
ESTEVAN        CLOUDY    41  16  36 E12       30.20R
KINDERSLEY     PTCLDY    41  25  52 E13       30.12S
LLOYDMINSTER   CLEAR     48  27  43 S14       30.10S
PRINCE ALBERT  PTCLDY    37  27  65 NE3       30.20S
REGINA         MOCLDY    46  19  34 E12       30.20S
YORKTON        CLEAR     37  25  60 E3        30.24R
N. BATTLEFORD  CLEAR     43  23  45 SE13      30.17S
LA RONGE       PTCLDY    46  25  42 SE10      30.20S
SASKATOON      MOCLDY    48  25  40 SE12      30.19F
SWIFT CURRENT  CLEAR     37  23  56 SE8       30.12S
$$
NOTE: THESE ARE AUTOMATED STATIONS WITH LIMITED QUALITY CONTROL
      "FAIR" INDICATES FEW OR NO CLOUDS BELOW 12,000 FEET WITH NO
      SIGNIFICANT WEATHER AND/OR OBSTRUCTIONS TO VISIBILITY.
      SKY/WX - SKY CONDITION AND SIGNIFICANT WEATHER.
      TMP - AIR TEMPERATURE.    DP   - DEWPOINT TEMPERATURE.
      RH  - RELATIVE HUMIDITY.  PRES - PRESSURE.
      HX  - HEAT INDEX.         WCI  - WIND CHILL INDEX.
$




USA.gov is the U.S. government's official web portal to all federal, state and local government web resources and services.